Theta_e
305 305 305 305 305 306 306 306 307 307 306 306 305 304 303 302 302 302 302 301 302 303 303 302 301 300 300 301 302 302 302 305 304 302 303 304 307 308 308 308 307 307 308 306 305 308 308 308 309 309 309 311 309 310 310 311 314 316 321 332 335 333 334 334 332 330 328 325 322 322 325 329 328 328 326 322 323 324 320 317 315 314 318 322 320 318 318 317
305 305 305 305 306 306 306 307 307 307 305 304 303 302 301 301 301 301 301 302 301 301 301 301 301 300 301 301 302 302 303 305 304 302 303 304 307 308 307 307 307 307 307 305 306 308 308 309 308 308 310 312 312 310 311 311 312 317 324 329 331 333 331 329 327 321 320 321 322 322 322 324 325 324 321 317 317 319 317 314 313 312 312 312 312 312 312 312
305 305 305 305 306 306 307 307 305 305 302 301 301 300 300 300 300 301 301 302 302 301 301 301 301 301 301 301 303 305 305 307 305 303 302 304 307 308 307 307 306 307 306 305 306 307 308 309 307 309 311 313 314 311 311 313 313 318 325 324 327 332 326 320 320 318 319 321 322 322 319 319 320 320 318 315 314 314 314 313 312 312 311 310 310 310 310 310
305 305 305 305 306 306 307 307 303 301 300 299 300 300 300 300 300 301 301 301 302 302 301 301 301 301 302 302 306 307 306 307 307 303 302 304 306 307 306 306 306 306 305 305 306 307 307 308 308 310 311 314 316 312 310 313 313 316 321 323 326 328 325 319 318 318 320 321 320 319 317 316 315 315 317 317 315 313 311 311 311 310 310 309 308 308 309 308
306 305 303 302 304 305 304 304 301 299 300 299 300 300 300 300 300 301 301 301 301 301 302 301 301 302 302 304 307 307 306 308 306 302 303 304 306 307 306 306 306 305 305 306 307 307 308 309 311 312 311 314 315 312 311 311 311 313 317 323 326 325 325 320 318 319 319 319 318 317 317 315 312 311 313 314 314 312 310 309 309 308 308 308 307 308 307 307
305 302 300 299 301 302 301 301 300 299 300 299 300 300 300 300 300 300 300 301 301 301 302 302 302 302 303 305 306 305 307 308 305 302 303 303 305 306 304 305 305 305 306 307 307 307 310 311 313 314 313 313 314 312 313 310 308 312 314 318 321 321 321 320 319 318 316 316 316 315 314 313 311 310 309 310 311 310 309 308 308 307 307 307 307 307 306 306
303 298 298 299 299 300 300 300 299 299 299 299 300 299 300 300 300 301 301 301 301 302 302 302 303 302 304 304 304 306 307 305 303 302 303 303 304 304 304 304 304 305 306 306 307 308 311 313 314 314 311 313 313 312 313 310 308 310 312 314 317 318 319 320 318 314 313 313 313 312 311 310 310 310 308 308 308 307 308 308 307 306 306 306 305 305 305 305
300 297 298 299 299 299 299 299 299 299 299 299 299 300 300 300 300 301 301 301 301 302 302 303 303 303 305 304 304 310 309 303 302 303 303 303 304 304 304 304 305 305 305 306 308 309 311 312 313 312 312 315 313 312 311 309 309 309 310 313 316 319 320 318 315 311 311 310 310 310 310 310 309 308 308 308 307 306 307 307 306 305 304 304 303 303 304 304
298 297 298 299 299 299 299 299 299 299 299 299 299 299 300 300 300 300 301 301 301 302 302 303 304 304 305 303 304 309 308 302 303 303 303 304 304 304 304 304 305 304 304 306 307 308 309 310 311 310 312 315 313 314 312 307 310 309 310 313 315 317 317 316 313 311 310 309 309 309 309 309 309 309 308 308 307 305 305 306 306 304 303 303 302 302 302 302
297 297 298 298 299 299 299 299 299 299 299 299 299 299 299 300 300 300 301 302 302 302 303 303 303 305 305 303 304 306 304 302 303 303 303 304 304 304 304 304 305 304 304 306 307 307 308 309 309 307 310 313 312 314 313 308 310 310 311 314 314 314 313 312 311 310 309 308 308 307 307 307 308 309 308 307 307 306 304 304 305 305 303 302 301 302 301 301
296 297 297 298 298 299 299 299 299 299 299 299 299 299 299 300 300 300 301 302 302 302 303 303 303 305 305 304 305 304 302 302 302 303 304 304 305 305 305 305 305 304 305 307 307 306 306 306 305 306 311 313 313 315 314 312 310 310 313 313 312 312 311 311 309 309 308 307 307 307 307 306 306 308 308 306 306 305 303 303 303 303 302 300 300 300 300 300
296 297 297 297 298 298 298 299 299 299 299 299 299 299 299 300 300 300 301 301 302 302 302 303 303 304 306 306 305 303 302 302 302 303 303 304 305 305 305 306 305 305 306 307 306 305 305 305 306 310 312 313 316 314 312 313 311 312 314 314 314 313 313 313 312 311 310 309 310 311 310 307 307 307 307 305 304 303 303 302 301 301 300 300 300 300 299 299
296 297 297 297 297 297 298 298 298 299 299 299 299 299 300 300 300 300 301 302 302 302 302 302 303 304 306 306 304 302 302 302 302 303 303 304 305 306 306 306 306 306 306 306 306 305 305 306 307 310 310 312 317 314 311 314 313 314 315 314 315 315 315 315 314 313 312 313 313 313 312 308 306 307 306 305 304 302 302 302 301 300 300 299 299 299 299 299
297 297 297 297 297 297 297 298 298 298 298 299 299 299 300 300 300 300 301 302 302 303 302 302 304 304 305 304 302 301 302 302 303 303 303 304 304 306 306 307 307 306 305 305 305 305 306 307 307 309 310 312 316 314 315 317 315 315 316 318 318 317 315 312 311 312 311 312 310 310 311 308 306 305 305 305 303 302 302 301 301 300 300 299 299 298 298 298
297 297 297 297 297 297 297 298 298 298 298 298 298 298 300 300 299 300 301 302 303 302 301 301 303 305 305 303 302 302 302 302 303 302 303 303 303 305 306 306 306 305 305 304 305 305 306 306 308 312 314 312 313 316 319 320 318 317 318 321 320 316 313 309 308 310 310 309 308 310 310 307 305 304 304 304 303 302 301 301 301 300 300 299 299 299 299 299
297 297 297 297 297 297 297 298 298 298 298 298 298 298 300 300 299 300 301 302 303 302 301 301 301 304 305 303 302 302 302 301 302 303 303 302 303 305 306 306 306 305 306 304 304 305 305 307 310 313 316 315 315 316 318 319 320 321 320 319 319 316 313 310 308 308 308 308 309 310 308 306 306 304 304 304 303 302 301 300 300 300 300 299 299 299 299 299
296 296 296 297 297 297 297 298 298 298 298 298 298 299 300 301 300 300 299 301 303 303 303 301 299 302 305 302 301 302 300 300 302 302 302 302 303 305 306 307 306 305 305 305 304 305 306 309 311 311 313 315 315 314 317 320 318 318 318 316 315 314 312 310 309 308 307 308 308 307 307 306 305 304 304 303 303 303 302 301 300 300 300 299 299 298 298 297
296 296 296 296 296 297 298 298 299 299 298 298 299 300 302 302 301 300 299 300 301 303 304 302 299 304 306 302 300 301 300 301 302 302 302 303 304 305 306 307 308 306 307 309 307 307 308 309 312 313 314 314 313 314 317 319 317 314 314 313 312 311 310 310 309 308 306 307 307 306 306 306 305 304 303 303 302 301 301 301 300 299 298 299 298 298 298 297
296 296 296 296 296 296 298 299 300 300 298 299 300 301 302 303 304 304 300 298 300 301 302 301 300 302 303 302 300 300 300 301 302 301 302 303 304 306 306 307 309 308 309 311 309 308 309 309 311 312 311 310 311 313 313 315 314 313 312 311 310 310 310 309 308 307 307 307 307 307 306 306 306 305 303 302 302 300 300 299 299 299 298 297 297 297 297 297
296 296 296 296 296 296 299 300 300 301 299 299 300 300 304 306 307 308 305 302 300 299 300 300 300 300 301 301 300 300 302 302 302 301 301 303 305 307 306 307 310 309 310 312 309 308 310 311 310 308 308 308 308 309 311 312 310 309 310 310 309 308 308 307 306 306 306 306 306 306 305 305 305 305 303 303 302 301 299 299 298 298 297 297 296 296 296 296
296 296 296 296 296 296 300 301 300 301 299 299 300 302 304 305 304 304 306 306 300 296 299 299 298 299 299 299 299 299 302 303 302 301 301 302 304 307 307 307 308 307 309 311 309 307 309 310 309 306 306 307 307 309 310 309 308 307 309 309 308 308 307 306 305 305 305 305 304 304 304 303 303 303 302 302 301 300 299 298 297 297 296 296 296 295 295 295
296 296 296 296 297 297 300 301 300 301 300 297 300 301 300 300 300 300 302 306 303 297 297 298 298 299 299 299 299 299 301 302 302 302 300 301 304 307 308 307 305 305 307 309 308 308 309 309 306 304 306 308 309 309 308 307 308 308 308 308 307 307 306 305 305 305 305 305 304 303 303 303 302 302 301 300 300 299 299 298 297 296 296 295 295 295 295 295
296 296 296 296 297 298 301 301 299 300 300 297 299 299 299 299 299 300 300 302 303 299 297 298 299 299 299 300 299 300 302 301 302 302 300 301 304 306 308 307 305 305 305 306 307 307 307 306 304 305 308 310 309 307 307 307 308 308 308 308 308 307 307 306 305 304 304 304 304 303 303 303 302 301 300 300 299 299 298 297 297 296 296 295 295 295 294 294
296 296 297 297 297 298 302 300 298 301 301 298 297 298 299 298 298 300 302 303 301 298 297 297 298 299 299 299 298 300 303 301 301 301 299 301 303 306 308 307 305 305 305 304 305 305 305 303 302 307 310 309 308 307 307 307 307 309 308 307 308 307 307 306 304 304 304 304 304 304 305 304 303 302 300 300 299 298 297 297 296 296 296 296 295 295 295 294
296 297 297 297 297 299 302 301 298 301 301 298 297 297 297 298 298 299 303 306 300 296 297 297 298 299 298 299 299 299 302 302 300 300 299 300 302 306 307 304 304 307 306 305 305 304 304 302 303 309 310 309 309 309 310 308 307 309 308 307 306 305 305 305 304 305 306 306 306 307 309 306 304 302 301 301 300 298 298 297 297 296 296 296 295 295 295 294
297 297 297 298 297 298 302 302 299 299 301 299 297 296 296 298 299 297 303 307 300 295 297 298 299 299 299 299 298 298 303 304 300 299 299 299 301 304 304 303 304 305 306 306 305 304 304 302 304 309 310 310 310 310 312 310 308 309 309 306 305 305 305 306 307 308 309 309 307 308 310 307 305 304 302 302 301 300 299 298 297 297 297 296 296 295 294 294
297 297 297 298 298 298 301 303 299 298 300 299 296 295 296 299 298 297 302 303 299 296 297 298 299 299 299 299 298 301 304 303 299 299 299 299 301 303 302 302 302 301 304 306 305 305 303 302 304 307 308 309 310 310 312 311 308 308 307 305 306 306 306 307 307 307 307 307 306 306 307 307 306 305 304 303 303 301 300 299 298 297 297 297 296 296 295 294
297 297 297 297 298 298 299 300 298 297 297 296 295 295 297 298 297 300 306 300 296 297 297 297 299 299 298 298 298 301 301 300 300 300 298 298 301 303 303 302 302 300 301 304 305 305 304 302 303 305 307 307 307 308 309 308 307 307 307 308 307 306 307 306 306 307 307 307 307 306 307 308 307 304 303 303 303 303 301 300 299 298 298 297 297 296 296 295
297 297 297 297 298 298 298 299 298 297 296 295 296 297 298 297 298 304 307 299 295 296 298 298 299 299 298 298 298 299 298 298 299 298 298 298 299 302 303 301 302 302 301 302 303 303 303 303 301 302 305 305 305 307 308 307 306 307 309 309 307 306 307 307 307 308 310 310 308 306 306 308 308 305 303 303 304 304 302 300 299 299 298 298 297 297 296 296
297 297 297 298 298 298 299 298 297 297 296 296 297 298 296 298 304 307 302 297 297 297 297 298 300 299 298 298 299 299 298 298 297 297 298 298 298 300 301 300 300 302 301 301 301 301 301 302 302 302 302 303 305 306 308 308 307 309 310 307 308 310 311 313 310 310 315 313 307 305 305 307 310 306 303 305 306 305 303 301 300 299 299 298 298 297 296 296
297 297 298 299 298 299 299 298 299 298 297 297 297 297 299 302 306 305 299 296 298 300 298 298 299 299 298 298 298 298 299 298 297 297 297 298 298 298 299 299 300 302 302 301 301 301 300 300 302 302 300 303 308 307 307 309 309 311 311 309 310 313 315 317 313 313 317 312 306 304 303 306 311 307 304 305 305 303 303 302 301 300 299 299 298 298 297 296
297 298 299 299 298 298 298 298 299 298 298 298 296 298 306 306 301 300 299 297 297 299 299 299 299 299 298 298 297 297 299 299 297 297 296 297 298 297 298 298 298 303 304 302 302 302 301 300 300 302 301 302 307 309 308 309 311 313 314 314 314 314 316 317 314 312 313 309 306 305 304 305 307 305 303 303 303 303 302 301 301 301 300 300 299 298 298 297
297 299 298 298 298 298 298 299 299 300 300 298 299 305 309 304 298 298 301 300 297 298 299 299 299 299 298 298 297 297 299 298 296 297 297 296 297 297 298 297 296 300 302 300 301 304 305 302 300 301 302 300 303 308 310 308 309 313 314 316 318 317 316 314 309 308 309 308 305 303 304 305 305 303 303 303 303 303 302 301 302 301 301 300 299 299 298 298
298 299 298 298 298 298 299 300 300 300 298 298 306 311 306 300 299 300 303 302 298 298 300 299 298 299 298 297 296 297 300 299 296 296 296 296 297 297 297 297 297 297 299 301 301 302 305 303 300 300 301 300 300 302 304 306 309 310 309 313 316 317 316 314 311 311 310 308 306 305 304 305 304 303 302 303 303 303 303 302 301 301 300 300 299 300 299 298
298 298 298 298 298 298 299 300 300 300 297 297 303 305 302 300 300 300 303 302 299 299 299 297 297 301 299 296 296 296 299 299 297 297 297 296 297 297 296 298 297 296 298 302 300 300 302 300 299 300 299 299 300 299 300 305 309 307 307 313 312 310 311 310 308 309 309 310 311 310 306 303 303 302 301 302 302 302 303 303 302 302 300 300 300 299 299 298
298 298 298 298 298 299 299 300 299 298 297 298 301 302 301 300 298 299 300 300 299 298 298 298 298 300 300 298 298 297 297 298 297 299 299 296 297 297 296 298 298 295 297 301 301 302 302 298 298 303 301 298 299 299 298 301 306 307 308 311 307 305 309 310 306 304 306 310 309 305 305 305 303 302 302 301 301 302 303 303 303 303 301 300 300 299 300 299
299 299 298 297 298 299 299 299 298 297 297 299 302 302 298 297 297 299 298 297 297 296 298 301 298 299 301 301 299 297 298 299 298 299 299 297 298 297 296 298 298 295 295 298 300 300 300 300 298 300 302 300 298 300 300 299 303 310 309 306 304 303 307 311 311 307 307 311 309 305 306 307 304 303 303 301 302 302 302 302 302 302 301 300 300 299 300 299
299 301 300 298 298 298 299 299 298 298 298 300 302 300 297 296 296 297 298 297 297 297 299 301 298 298 300 301 300 297 298 299 298 299 301 299 298 297 296 298 298 296 295 297 300 299 299 302 298 298 303 302 299 303 305 302 302 306 305 303 305 306 307 309 310 309 310 312 309 306 305 306 304 303 303 302 302 301 300 300 300 300 301 300 300 300 300 299
300 305 304 298 297 298 299 298 297 297 299 301 302 299 296 298 298 298 298 297 296 299 300 299 298 298 299 298 300 299 298 298 297 298 300 298 297 297 296 297 297 296 295 297 299 298 299 302 299 299 301 300 300 303 304 303 302 304 304 304 305 305 305 307 306 307 311 311 307 306 306 307 306 304 304 302 301 301 300 299 298 298 299 300 301 301 300 299
299 307 306 297 297 299 298 297 297 298 301 299 298 297 294 298 301 299 299 297 297 298 299 299 298 299 299 297 298 299 298 297 296 297 299 298 297 297 296 296 296 295 295 297 297 297 300 305 300 298 300 300 301 300 298 300 301 302 305 306 306 304 302 302 300 301 308 312 309 307 309 312 309 304 304 302 300 300 300 299 298 297 297 298 300 301 300 298
301 310 306 297 298 298 299 301 298 297 300 296 295 297 296 298 300 299 299 298 298 298 297 298 299 298 299 298 298 298 298 298 296 297 298 298 297 296 296 297 296 294 297 300 299 297 301 305 303 302 302 301 300 298 297 298 298 300 301 301 303 302 302 304 299 296 301 306 308 306 307 314 311 303 303 302 300 300 299 299 298 296 296 296 298 300 299 298
305 311 303 298 299 298 300 303 296 295 300 298 296 297 297 298 298 297 298 297 297 298 297 298 298 297 298 299 297 297 298 298 297 297 297 297 297 297 297 297 296 295 297 299 299 298 298 303 305 304 301 299 299 298 297 297 297 299 300 299 300 299 303 312 308 300 297 297 300 300 301 309 310 304 304 302 300 300 299 299 298 297 297 296 296 298 298 298
308 306 300 298 298 298 302 305 298 296 298 296 294 295 296 299 299 298 298 298 298 299 299 298 297 296 296 297 297 296 296 296 296 297 297 297 298 298 297 297 296 295 297 297 297 298 297 300 305 306 303 303 303 299 297 297 298 299 299 299 300 299 301 307 307 304 301 299 301 300 300 308 309 304 305 302 300 301 299 299 299 298 298 296 295 297 297 298
305 300 300 299 296 302 310 310 305 299 297 296 297 298 296 297 299 299 298 298 299 299 300 298 296 295 295 295 296 297 295 295 295 296 296 296 297 297 298 298 295 294 296 296 296 298 296 296 303 308 305 305 306 304 301 301 301 300 299 298 299 299 299 300 300 301 301 300 302 302 304 311 308 303 303 301 300 301 300 300 299 299 300 298 296 296 295 296
302 299 304 301 295 301 306 304 303 302 299 300 301 300 298 297 298 298 298 298 298 297 297 296 296 297 296 296 297 297 295 295 294 295 296 296 296 297 298 299 295 293 296 296 296 299 297 294 301 309 305 301 301 300 299 300 300 299 297 297 299 299 299 299 299 303 302 297 297 302 307 309 304 303 303 302 301 302 301 301 300 299 300 300 298 296 295 295
305 305 308 305 298 299 299 296 299 303 302 302 301 298 299 300 297 297 298 298 298 297 296 295 296 297 297 298 301 299 296 295 295 296 298 298 298 297 297 298 296 294 296 296 295 297 297 293 294 304 309 307 305 301 297 298 300 299 297 298 299 299 298 298 298 302 303 300 300 302 303 301 300 301 302 302 303 302 302 301 301 300 299 299 299 297 296 294
307 306 302 302 302 303 302 299 300 303 302 303 301 297 299 301 297 296 297 297 297 298 297 297 296 295 296 298 300 299 296 296 297 297 297 297 297 297 296 297 296 294 295 296 294 297 301 298 293 296 304 303 300 299 296 296 299 300 299 300 300 299 298 298 299 300 299 300 304 303 298 298 300 301 302 303 302 301 301 300 300 300 299 298 298 297 297 295
302 300 295 296 301 303 301 300 301 302 301 301 300 298 300 301 299 299 298 296 297 296 297 299 297 296 296 296 298 299 297 297 297 297 298 298 297 297 297 296 295 293 295 296 295 297 302 301 295 295 303 301 295 295 295 295 297 297 298 299 299 298 299 300 302 302 298 299 304 303 299 300 301 300 301 302 300 299 300 299 298 299 298 298 297 297 297 296
297 299 295 295 301 302 299 297 299 301 301 301 301 300 302 304 302 299 297 296 297 296 296 299 297 296 297 295 297 300 298 296 295 296 298 297 296 297 297 297 295 293 293 296 296 295 299 301 295 292 300 303 298 295 294 294 297 297 297 297 296 297 298 298 300 301 299 300 301 298 297 298 296 296 297 297 297 298 298 297 297 298 297 297 297 297 297 296
300 303 300 299 301 300 299 299 300 303 302 301 302 300 301 305 303 298 296 297 299 298 296 297 296 296 297 297 299 299 296 295 295 295 296 296 296 296 295 295 295 293 294 295 295 294 296 298 293 291 300 305 300 297 296 295 297 299 297 295 294 295 296 295 296 297 298 299 298 296 297 297 295 297 298 296 296 296 296 297 297 296 296 297 297 297 297 296
299 299 298 303 304 299 300 300 300 304 304 303 304 299 299 304 302 299 297 296 298 299 297 297 298 297 296 295 297 297 295 295 296 295 294 294 294 294 293 293 293 293 295 294 293 295 297 297 294 295 303 306 299 298 300 296 295 297 298 297 294 294 296 296 294 295 297 299 298 298 300 300 298 300 300 299 299 298 298 299 298 297 297 297 298 299 298 297
297 295 295 304 304 298 299 300 299 304 302 302 303 299 299 303 300 298 299 297 296 297 297 298 298 298 298 296 296 296 296 296 295 294 293 293 293 293 293 293 293 293 294 293 294 295 296 298 299 297 301 307 301 296 297 297 298 301 304 302 297 294 295 296 295 295 295 297 299 300 301 300 300 300 300 301 303 303 302 301 301 300 299 299 299 299 298 297
Wind_Speed
16 16 16 16 16 16 17 17 17 16 16 15 15 15 16 17 18 19 20 21 20 18 16 15 15 15 14 14 14 15 14 10 8 13 13 11 15 15 15 16 16 16 15 16 15 14 13 12 14 18 16 5 2 1 2 2 1 2 2 3 4 4 4 5 5 5 6 4 3 6 7 11 9 5 5 9 17 15 17 17 13 16 17 19 23 26 26 26
15 15 15 16 16 16 16 16 16 16 15 15 15 16 17 18 18 19 20 21 21 20 17 16 16 15 15 14 14 14 12 7 6 10 14 14 16 15 15 16 16 15 15 15 14 12 8 8 12 13 8 2 1 1 1 2 2 3 3 3 3 3 2 2 5 6 8 7 7 11 9 11 9 4 4 9 12 14 17 14 13 16 17 21 25 26 26 28
15 15 15 16 16 16 16 16 15 14 15 15 16 17 18 18 19 19 19 20 20 20 17 16 16 15 16 16 16 13 9 5 3 8 16 17 16 16 15 16 16 15 14 13 13 13 8 9 12 8 2 2 2 1 1 2 2 2 3 4 3 3 4 6 10 11 11 11 13 13 11 16 12 4 6 13 14 17 16 10 12 15 15 16 17 20 23 27
15 15 15 16 16 16 15 15 14 14 15 15 16 17 18 19 20 20 20 19 19 19 17 16 15 16 16 18 17 9 4 4 2 10 19 18 16 15 16 16 16 15 13 11 11 12 10 10 9 3 1 2 3 1 1 2 1 2 3 4 4 3 6 8 12 14 11 13 15 13 16 19 13 10 7 14 17 14 12 10 12 13 12 13 13 17 22 26
16 16 15 16 16 15 14 14 14 14 14 14 16 17 18 20 20 20 20 19 20 20 18 16 15 16 16 17 15 7 4 2 3 15 21 17 16 16 16 16 15 13 10 8 8 11 9 6 5 1 1 1 2 2 2 3 1 1 2 5 5 3 8 8 12 16 12 14 17 16 17 12 12 16 12 19 18 7 8 10 11 12 11 13 13 17 23 26
16 16 15 15 15 14 14 13 13 13 13 14 16 18 20 21 21 21 20 19 20 19 19 16 15 15 14 16 12 9 6 2 8 20 20 17 17 16 15 16 13 10 7 6 9 10 7 5 4 2 0 1 0 1 2 2 2 2 1 5 4 5 10 8 11 16 16 18 18 16 14 10 18 18 13 22 18 8 9 8 11 12 12 17 19 21 21 22
16 15 15 15 14 13 13 12 12 12 13 15 16 18 20 21 21 21 20 20 19 18 18 16 15 14 12 13 9 7 5 2 14 21 19 18 17 14 14 14 10 8 7 6 8 6 3 4 3 1 1 1 2 2 3 2 1 3 1 5 4 6 12 10 11 17 22 23 17 17 16 15 23 18 12 20 15 10 10 8 12 15 18 24 23 21 20 21
16 15 14 13 13 12 11 11 12 13 14 15 17 19 19 20 20 21 21 21 19 18 17 15 15 13 11 10 6 4 2 6 18 22 20 18 16 14 14 12 8 9 7 3 5 3 2 4 2 1 2 1 1 1 2 1 2 3 3 4 2 6 12 14 14 22 26 20 18 23 19 15 21 18 15 17 13 11 10 8 11 15 22 25 21 20 20 21
15 15 14 13 12 11 11 11 12 14 16 17 19 21 22 21 20 21 21 20 19 16 15 15 15 13 9 7 5 2 4 13 21 21 21 18 16 15 13 11 9 10 6 1 1 3 1 1 1 2 1 2 2 2 2 2 2 5 4 2 8 10 15 17 14 21 21 14 20 26 17 12 11 12 15 14 9 8 8 11 12 14 20 19 17 19 20 21
15 14 14 12 11 11 11 12 13 15 17 19 21 23 23 22 20 21 21 19 18 16 13 13 13 11 7 5 5 3 9 20 21 20 19 17 16 15 14 13 11 11 5 3 1 3 3 2 1 3 3 1 1 2 2 3 3 3 7 11 15 15 15 17 15 17 17 13 25 29 17 15 10 8 11 10 9 7 9 15 14 14 17 17 15 17 21 22
15 14 14 13 12 12 12 13 15 16 18 20 22 23 23 22 21 22 20 16 16 15 12 10 10 9 4 4 4 2 14 23 21 19 18 15 15 13 11 10 9 8 6 6 3 3 5 5 3 2 1 1 1 2 3 2 2 7 14 16 17 19 14 14 16 15 16 12 21 30 22 18 14 12 10 7 8 7 10 16 14 13 14 14 13 13 18 21
15 15 14 13 12 12 13 15 16 18 19 21 21 21 21 21 22 21 17 13 14 15 12 6 4 6 4 3 2 5 18 24 20 19 17 14 13 9 6 6 5 6 8 5 3 4 6 5 4 2 1 1 1 1 2 2 4 12 18 16 15 20 13 8 8 7 13 11 7 18 20 17 13 11 8 6 5 5 12 15 13 14 12 12 11 10 14 18
16 16 15 14 13 13 13 14 16 17 18 19 18 18 18 20 22 20 15 11 12 15 13 4 0 3 4 1 4 12 21 22 18 18 17 13 10 5 4 4 1 5 5 3 5 6 5 3 4 3 1 0 1 2 0 2 6 14 16 13 12 15 8 4 3 4 8 2 4 7 9 8 10 9 8 7 4 5 14 14 11 12 11 11 11 10 12 17
17 17 15 14 14 13 13 14 15 16 16 16 16 16 15 18 23 20 13 10 12 16 12 4 1 1 3 1 7 17 22 20 20 21 19 16 11 5 2 1 1 2 1 2 6 7 5 2 3 3 1 2 3 4 2 1 6 12 13 8 6 9 5 5 4 6 8 4 7 16 9 4 7 8 8 8 6 5 14 13 10 10 9 10 11 12 12 16
18 18 17 16 14 14 14 14 17 17 17 16 15 13 9 17 26 22 14 9 11 18 15 8 4 3 2 3 9 20 24 23 25 25 21 18 13 6 2 2 1 3 4 4 6 6 5 4 3 2 2 3 0 2 2 3 4 7 10 5 3 7 7 9 8 7 10 5 15 22 9 4 8 7 6 6 6 7 15 12 9 10 10 10 10 11 10 13
19 19 18 17 16 15 15 16 20 21 19 16 14 8 3 13 24 23 18 10 7 15 20 16 10 2 3 5 14 22 24 23 25 25 24 20 12 6 1 3 3 4 5 4 5 5 4 4 1 2 1 1 2 3 4 6 3 1 6 6 6 10 7 6 9 7 9 7 11 18 12 5 7 6 5 6 5 8 14 12 11 11 10 10 9 9 10 10
20 20 20 19 18 17 16 18 21 21 19 15 10 3 4 6 17 22 21 15 7 8 13 20 16 1 2 13 17 16 18 23 25 24 27 22 8 5 2 2 3 2 6 4 7 7 4 2 1 1 3 3 1 2 6 8 5 2 5 5 5 10 7 6 7 7 13 17 14 17 16 9 8 7 6 6 4 7 12 11 10 10 9 10 9 9 10 10
20 20 21 21 19 18 17 18 21 21 19 13 5 2 4 4 6 16 22 20 10 3 3 16 18 3 3 16 15 13 22 25 22 22 29 23 8 2 2 4 3 3 6 5 5 3 1 1 1 2 3 4 3 2 6 7 7 9 10 8 6 11 11 10 7 5 17 23 16 16 16 12 9 7 7 6 4 6 10 9 8 10 10 9 9 9 9 10
19 20 21 21 20 18 16 17 20 21 20 13 4 3 1 3 2 7 18 19 11 5 1 8 11 4 3 12 13 21 25 18 17 25 35 30 11 2 0 4 3 5 3 1 2 2 3 3 4 4 3 4 4 1 3 5 10 15 14 12 11 12 12 13 11 9 20 23 14 15 15 12 10 7 8 6 4 7 10 9 8 8 9 8 9 9 9 10
19 20 21 21 20 17 14 15 18 21 22 14 3 3 3 2 2 4 10 11 5 6 4 3 4 1 4 9 13 25 24 14 18 25 36 32 12 3 4 3 2 4 3 2 2 3 2 5 4 2 3 5 7 3 3 8 16 18 15 16 16 16 12 13 12 8 18 21 10 14 16 13 11 8 7 4 3 8 10 10 9 8 8 8 9 10 9 9
19 21 22 22 21 17 11 13 17 19 20 15 9 7 3 1 3 2 5 5 1 5 7 5 5 2 6 9 12 21 14 12 21 24 34 33 12 6 7 5 6 6 5 2 2 1 3 6 4 5 5 7 8 1 9 15 22 19 15 17 16 15 10 11 11 3 14 22 9 13 19 14 11 9 7 5 6 10 9 10 10 9 9 8 9 10 9 8
19 21 22 22 21 16 8 11 16 15 16 19 17 11 4 3 2 2 2 2 4 5 8 10 10 8 14 14 16 19 7 9 18 21 34 32 12 6 5 6 10 8 7 4 2 4 5 5 9 12 8 5 2 10 16 16 20 18 13 14 12 13 13 12 11 4 10 17 9 12 19 13 10 10 8 8 9 10 9 9 9 9 9 9 8 8 8 8
20 21 22 22 21 14 5 9 15 12 16 21 18 10 4 3 3 2 2 2 4 6 6 11 12 11 17 17 21 22 8 8 10 15 29 23 7 4 3 5 9 10 11 9 7 6 5 6 13 14 5 8 14 15 16 12 12 10 10 14 11 10 12 9 7 6 9 13 12 15 16 9 8 9 8 8 8 8 8 9 9 8 9 8 8 7 7 8
19 22 23 23 21 11 3 6 14 13 13 16 16 10 4 3 3 1 1 2 2 6 5 7 7 8 12 14 20 16 3 4 7 13 25 17 5 5 3 3 6 10 10 11 14 12 7 10 14 6 5 17 20 14 11 10 8 6 4 12 13 10 12 13 12 12 13 13 12 14 12 6 6 7 6 6 6 7 6 8 8 8 8 7 7 7 7 7
19 21 23 24 21 9 3 4 14 11 6 8 12 10 4 3 2 3 1 3 4 6 5 6 6 10 16 19 20 10 2 5 6 9 20 16 7 4 3 2 3 6 6 10 15 11 10 14 11 7 13 15 17 9 4 7 9 6 4 8 18 19 19 21 18 14 10 5 3 6 7 3 4 6 5 3 5 6 5 6 7 6 6 6 6 6 6 6
18 20 23 24 21 10 2 1 11 10 2 3 8 9 4 1 1 3 3 5 5 5 8 9 7 13 19 18 18 9 2 6 9 15 24 23 10 1 3 4 1 4 3 5 8 4 7 14 9 9 13 13 14 9 5 4 11 5 5 7 20 22 20 17 13 9 6 3 1 3 5 4 1 2 3 3 4 4 4 5 5 5 5 5 5 5 5 5
16 19 22 23 21 13 3 1 10 8 2 4 9 7 2 1 2 2 2 5 5 5 7 8 5 11 16 15 17 7 3 7 12 18 24 23 14 2 7 7 3 6 3 1 5 3 6 13 12 11 12 12 9 6 5 2 8 6 3 8 14 16 14 11 9 8 5 5 5 7 5 5 2 2 3 4 5 4 4 4 4 4 4 4 4 4 4 4
16 18 20 21 19 14 7 4 8 7 4 8 7 2 2 2 2 2 4 5 4 4 3 5 7 11 13 15 13 5 2 6 5 12 20 22 17 4 7 9 4 8 7 4 7 1 6 11 14 9 10 10 4 1 1 8 11 7 7 7 7 10 12 10 11 8 4 6 6 6 4 4 2 2 2 1 4 3 2 3 3 3 3 3 3 3 3 3
16 17 18 19 17 12 8 5 8 10 10 7 3 2 3 3 2 3 6 4 3 5 2 5 10 11 12 12 10 7 4 4 3 7 15 20 21 9 5 4 2 5 9 11 10 1 3 4 6 6 8 6 5 3 6 18 15 7 9 8 6 9 9 8 8 5 4 6 3 4 3 4 2 2 2 0 2 3 3 3 3 3 3 2 2 2 2 3
15 15 17 18 16 14 8 5 11 15 12 5 2 1 3 3 4 6 6 2 1 4 2 3 6 7 11 10 9 11 9 7 5 6 8 10 18 16 4 1 2 3 5 9 8 3 4 1 2 6 7 2 4 7 7 15 15 10 9 9 6 6 6 5 4 3 5 4 2 4 2 4 1 3 4 3 3 6 5 3 4 3 3 3 2 2 1 1
14 14 15 16 16 16 10 8 14 17 11 4 1 1 1 2 5 7 3 2 1 4 4 4 5 7 11 8 7 10 8 9 10 9 10 9 13 18 9 4 5 4 6 7 4 4 9 9 4 4 8 5 5 9 9 9 8 6 5 5 5 4 4 5 5 4 5 1 4 3 2 4 2 3 5 4 4 8 8 6 6 6 5 5 4 3 3 3
13 13 14 15 16 17 13 11 15 16 10 3 1 2 4 4 6 3 1 4 3 4 4 3 5 7 9 6 6 9 6 6 9 8 8 6 7 11 10 7 5 4 6 5 5 6 8 12 11 6 8 12 7 5 7 7 6 6 4 4 5 3 4 4 4 3 2 2 4 2 2 2 0 4 4 4 6 8 8 8 8 8 7 6 5 5 4 4
12 12 14 16 17 19 19 16 15 14 9 2 0 4 6 6 4 1 3 3 1 3 3 3 6 7 7 6 7 9 4 3 8 8 5 4 6 7 8 10 9 5 2 2 4 7 5 10 17 12 7 10 7 4 4 3 4 5 3 3 4 4 4 2 2 2 0 2 3 2 2 1 2 3 4 7 7 8 8 8 9 9 8 7 7 6 5 5
10 12 15 17 18 21 23 19 14 12 7 2 3 6 9 7 1 1 3 3 3 4 3 3 7 8 6 5 5 7 4 3 7 8 7 8 9 7 7 11 13 6 1 3 4 5 5 5 11 9 4 7 7 4 1 1 3 4 0 5 4 3 5 3 2 2 2 2 2 2 2 1 2 2 4 6 6 6 7 7 7 7 7 7 6 5 5 5
8 12 17 19 21 24 24 18 13 9 6 5 6 7 9 4 3 1 1 4 2 4 5 4 5 5 6 4 4 6 3 3 7 7 7 8 7 6 6 7 11 9 3 4 3 2 5 2 5 4 3 4 5 4 2 2 3 2 1 4 3 2 4 4 3 4 4 1 2 2 0 3 2 3 4 3 3 5 6 6 6 6 6 6 5 6 5 5
5 10 16 21 23 25 23 15 10 7 4 5 9 7 3 3 3 2 1 2 1 4 7 5 4 4 6 5 5 8 5 3 7 6 4 5 5 7 7 4 7 10 4 2 1 1 4 1 5 6 4 4 5 3 2 3 1 1 3 2 1 3 5 5 2 1 3 3 1 2 1 3 2 2 4 3 4 6 6 6 7 7 7 6 6 6 5 5
4 6 12 22 25 23 19 12 10 12 8 6 10 5 2 2 3 3 1 2 1 3 3 4 4 3 4 4 5 10 8 4 6 6 4 5 5 8 9 5 4 7 5 2 1 0 3 1 4 5 4 4 3 0 2 5 3 3 3 2 2 2 4 5 2 3 5 1 2 2 1 2 1 1 3 6 7 7 7 7 7 7 7 7 7 7 7 7
5 2 5 19 25 20 16 10 6 11 10 7 9 5 2 0 1 2 1 2 1 2 4 3 2 2 2 2 4 8 8 5 6 5 4 4 3 4 7 6 4 7 8 4 2 1 4 2 4 4 2 7 6 4 3 8 7 5 4 2 2 3 2 3 3 2 2 0 3 3 2 3 3 3 5 9 11 10 9 8 8 8 8 8 8 7 8 7
5 2 2 18 23 15 13 9 6 9 9 6 5 2 1 1 2 3 2 1 0 2 4 2 1 2 2 2 2 5 6 5 5 3 3 3 2 3 6 4 6 9 10 5 3 1 1 4 2 6 4 4 6 7 4 7 8 5 4 3 2 3 2 2 2 2 3 2 2 2 3 3 5 5 8 13 13 12 11 9 9 10 10 9 8 8 8 7
4 2 2 18 21 8 7 14 15 10 7 4 2 1 1 1 3 4 3 0 1 1 2 2 2 2 2 2 1 3 3 4 4 2 2 2 1 2 5 4 6 9 8 5 4 1 1 4 1 6 7 4 3 3 1 1 4 4 4 4 3 2 1 2 2 2 4 4 3 1 1 5 6 4 9 13 13 12 12 11 10 10 10 10 9 8 8 7
4 3 3 18 19 5 4 14 13 5 4 3 1 2 1 2 2 4 3 1 1 1 1 2 2 2 1 2 2 2 2 3 4 3 2 3 2 1 4 5 5 8 5 5 5 3 2 3 3 2 5 4 0 3 2 3 2 1 1 1 0 1 1 3 2 2 2 3 4 3 1 7 5 3 6 9 9 10 11 12 10 9 10 10 8 9 9 8
5 3 5 18 16 6 9 9 4 3 4 2 1 1 1 1 1 3 4 3 2 1 2 3 2 1 1 1 2 1 2 3 3 3 1 2 2 2 3 6 6 5 2 3 4 2 2 3 4 2 1 1 4 3 0 1 2 1 1 1 2 2 3 5 2 3 1 2 2 3 0 6 5 2 5 6 7 8 9 10 10 9 9 9 8 8 8 8
3 2 6 18 11 4 11 7 3 5 3 1 1 1 2 1 1 2 3 3 3 2 3 2 0 1 1 0 1 2 2 2 2 2 1 2 2 4 4 7 6 3 3 2 3 2 3 4 4 3 4 4 5 4 3 3 2 2 2 2 2 1 2 4 4 3 3 1 1 2 1 6 5 3 2 4 5 5 6 8 9 8 7 7 8 8 8 8
2 3 4 17 11 2 5 4 2 3 1 1 2 1 2 1 0 2 2 2 2 1 2 2 1 1 1 0 1 1 2 2 2 2 1 1 2 2 2 6 6 5 3 1 3 2 2 2 3 3 4 6 7 6 5 5 4 1 2 3 2 2 3 2 1 3 2 3 4 4 3 6 4 4 4 2 1 4 6 7 7 7 7 7 7 7 8 8
3 1 3 14 18 10 4 4 5 5 3 2 4 1 2 2 1 0 0 1 1 1 1 1 1 1 1 2 3 3 2 2 2 2 2 1 3 2 4 6 5 5 3 2 3 2 2 2 3 5 3 1 1 2 3 3 2 1 2 3 2 3 3 1 1 3 1 2 4 4 5 5 5 5 5 5 3 4 7 6 5 6 6 7 7 7 7 8
3 2 2 8 13 10 3 1 5 6 4 4 3 1 2 2 2 1 1 1 1 1 2 1 1 1 2 3 3 4 4 3 2 2 2 3 3 2 4 5 4 7 8 5 5 3 4 3 2 6 6 5 5 5 4 2 0 1 2 3 2 1 2 3 3 1 3 2 2 5 5 4 8 5 5 6 5 6 7 6 6 7 7 7 7 7 8 8
2 2 1 1 4 5 4 4 4 4 3 4 3 1 2 2 1 2 1 1 1 2 3 2 2 2 1 2 3 2 4 4 3 3 2 3 3 3 4 3 4 10 11 5 4 3 5 3 2 3 4 5 5 5 3 1 2 4 3 3 3 2 2 5 3 4 4 3 4 6 3 3 7 5 6 8 8 7 8 8 8 8 8 8 8 8 9 8
2 2 1 0 1 2 2 2 3 5 4 4 3 2 2 2 1 1 0 1 2 2 1 2 4 3 0 1 2 1 2 4 3 2 2 2 3 4 5 3 2 8 9 5 4 3 6 2 2 1 4 6 5 4 3 2 2 4 4 5 5 4 5 6 6 6 6 5 6 4 2 5 9 6 7 9 8 9 10 9 8 7 8 8 8 8 10 10
3 3 0 2 2 3 1 2 4 6 5 3 3 2 3 4 3 2 1 2 3 2 1 1 3 4 2 0 2 2 1 2 2 2 2 2 3 3 4 3 2 5 6 5 4 2 4 0 1 1 4 7 4 3 4 4 2 3 6 8 7 7 8 8 7 6 7 8 10 5 5 12 13 10 11 11 9 9 8 6 6 7 9 9 8 9 11 10
2 3 1 3 4 1 1 3 4 5 3 3 2 1 2 5 4 2 0 2 1 2 2 2 3 3 2 1 3 2 2 3 2 3 2 1 3 1 1 2 2 5 7 4 3 2 1 0 1 2 3 7 5 1 2 4 3 5 8 8 7 7 7 8 7 5 6 9 10 6 8 13 10 7 9 9 6 5 6 8 9 9 9 9 9 10 10 10
3 3 5 6 4 2 1 2 3 4 2 2 2 3 2 4 5 4 1 1 2 1 1 4 5 2 1 2 2 2 4 3 4 4 4 2 2 1 0 1 2 5 6 4 3 4 3 1 1 4 4 5 4 3 3 2 2 6 11 11 10 8 6 6 6 6 7 6 3 2 5 9 6 4 4 5 3 5 7 9 9 8 8 8 9 9 10 10
5 4 4 6 3 2 1 1 3 3 1 1 2 3 2 3 5 4 3 1 0 1 2 6 6 2 1 1 1 4 5 4 4 3 3 2 1 1 1 1 1 3 3 2 3 3 2 2 1 3 2 5 5 3 4 5 4 5 9 8 8 8 5 4 4 7 9 7 5 4 7 7 4 2 3 4 4 6 7 8 8 8 8 8 9 10 10 11
Wind_Direction
19 18 15 12 8 5 1 355 354 356 1 4 7 14 16 18 16 15 13 10 8 5 5 3 2 3 358 354 351 346 349 9 29 23 18 358 345 341 341 342 341 339 335 328 329 336 338 345 345 347 352 348 155 226 247 202 193 92 130 153 183 168 179 196 164 158 115 93 45 30 33 95 91 41 84 48 45 57 56 48 40 42 48 53 52 54 54 53
15 13 10 9 5 3 359 353 354 358 5 9 12 17 16 16 12 10 9 8 9 9 10 8 5 3 357 354 348 342 340 358 39 22 6 352 342 338 338 341 341 339 335 332 333 338 338 329 328 339 349 337 264 220 214 239 160 135 145 148 189 153 154 175 129 113 101 120 95 62 39 62 56 18 81 65 45 50 56 41 41 47 45 49 47 50 53 54
14 11 6 6 2 2 358 354 360 5 12 17 18 18 15 14 11 10 8 7 6 6 6 6 3 0 356 353 346 337 331 357 48 2 353 349 341 336 337 338 338 338 335 332 329 325 312 300 307 319 344 304 280 182 178 250 187 176 126 114 219 172 86 73 93 94 109 119 92 75 64 56 41 26 86 89 66 47 49 35 43 51 44 47 42 45 50 50
12 8 4 3 360 1 358 357 8 17 20 22 22 20 19 17 15 14 12 11 7 4 0 360 1 357 356 354 351 339 332 33 29 336 345 345 339 335 336 335 335 336 331 329 326 322 316 309 306 291 133 314 303 96 161 243 201 179 128 136 219 183 88 81 97 97 103 102 91 85 74 66 50 39 65 93 74 42 42 40 51 61 54 56 48 46 49 49
10 6 5 7 5 5 7 8 16 24 24 25 25 22 20 18 16 14 12 10 7 4 358 356 357 355 358 0 2 9 27 68 323 336 344 342 335 331 333 331 332 336 336 336 332 334 335 333 341 358 134 300 327 74 202 248 134 134 200 177 190 141 103 99 103 101 100 93 87 78 72 82 73 51 49 77 77 51 44 45 60 67 63 65 57 52 50 50
9 8 10 13 13 14 17 20 23 26 25 25 23 20 19 17 15 13 10 7 5 4 359 354 354 354 0 5 11 33 58 149 316 337 340 337 331 325 328 326 329 341 342 342 348 356 353 359 16 22 98 292 158 159 253 293 99 116 247 198 170 108 116 115 103 103 96 85 81 80 81 95 86 65 49 68 73 77 67 55 68 71 71 69 58 53 50 49
10 12 15 15 17 20 20 23 23 22 20 18 16 14 14 14 14 12 9 8 5 3 0 356 354 353 1 10 13 33 80 236 317 336 337 335 328 323 327 325 329 339 339 353 9 18 0 18 28 327 25 351 183 212 260 317 84 128 219 223 170 109 120 120 105 101 90 85 86 87 81 75 82 78 57 65 60 53 62 58 70 73 68 63 56 53 51 50
12 15 14 14 17 18 17 17 13 10 7 3 2 0 0 3 6 6 5 5 3 1 0 356 353 356 5 19 21 16 60 302 322 335 336 331 323 323 324 324 328 324 329 8 27 37 353 37 44 1 47 295 171 247 248 78 57 148 216 246 115 95 121 121 107 100 93 94 92 81 74 67 79 82 61 62 61 46 46 44 54 66 64 60 58 56 53 51
16 16 13 14 12 10 8 3 360 357 354 352 351 350 350 353 356 1 2 2 4 0 356 352 350 0 12 31 55 56 322 322 331 335 335 331 320 317 310 310 315 310 306 276 51 77 53 63 53 58 118 283 19 336 289 125 169 182 185 111 86 90 117 117 102 97 97 105 92 77 64 55 70 81 53 35 51 61 60 55 40 49 62 61 60 57 54 52
17 14 11 8 3 0 356 350 349 346 345 345 345 347 350 352 355 0 1 2 3 359 356 347 342 1 24 33 53 52 331 335 340 339 338 336 324 314 301 299 303 299 270 211 156 116 131 139 116 104 134 291 34 296 286 145 193 167 115 99 97 96 107 108 101 97 92 90 89 82 61 41 36 68 64 18 17 38 60 65 50 46 59 61 62 59 56 53
16 13 9 3 357 352 346 344 341 339 339 339 341 346 350 354 359 2 1 0 359 1 1 341 339 4 19 47 66 2 339 342 343 345 345 340 332 323 308 304 300 280 215 195 210 177 156 147 145 114 110 313 275 247 227 197 86 119 108 96 98 98 94 96 107 109 97 90 91 88 68 39 33 54 67 37 25 24 54 63 59 55 55 57 58 58 57 51
16 11 6 1 354 346 343 341 337 336 335 336 340 345 351 359 3 3 1 356 357 6 4 335 342 6 357 47 54 333 341 344 345 351 352 340 332 336 337 335 301 234 199 190 176 162 156 142 116 118 241 296 317 178 204 302 94 123 112 103 106 101 89 78 95 99 106 125 107 82 62 28 27 47 37 25 42 50 65 60 54 59 53 51 51 53 58 50
16 11 6 1 355 348 344 341 338 336 334 337 342 345 356 5 6 8 5 355 360 6 5 359 291 13 35 46 316 339 343 343 350 355 357 350 335 340 356 358 313 200 201 187 137 138 146 130 108 131 245 60 238 250 324 326 135 127 113 116 119 102 80 28 44 35 75 148 273 75 75 32 23 36 17 3 13 60 71 62 50 59 55 52 51 51 55 51
18 12 8 2 358 354 348 347 345 340 339 342 344 347 3 15 16 18 12 5 13 10 10 39 112 35 54 286 312 342 343 347 359 357 357 354 341 338 342 336 190 181 200 153 132 126 121 89 95 117 234 178 236 291 3 93 140 125 115 119 112 108 88 30 45 76 58 3 93 93 94 86 46 32 26 12 351 50 75 68 57 61 59 59 54 52 50 45
18 14 9 4 360 356 354 355 353 346 343 342 343 349 14 31 27 27 22 18 21 19 27 41 22 18 30 311 320 343 352 358 357 354 355 350 339 338 350 13 144 112 68 98 114 105 88 64 87 121 255 209 220 352 51 92 124 131 128 121 91 110 96 52 33 76 90 64 90 94 91 99 80 51 39 26 359 53 77 70 60 61 59 63 58 58 55 43
17 14 10 6 360 357 354 355 355 350 344 341 343 347 61 46 32 30 29 27 17 20 32 28 1 36 90 340 333 349 357 350 340 345 353 347 327 299 330 73 139 108 57 88 82 52 53 57 121 194 316 46 72 87 112 118 127 125 117 125 123 118 113 69 24 30 97 73 67 97 113 110 88 72 52 47 19 55 78 73 65 63 55 61 58 59 62 50
16 12 8 5 1 356 351 350 352 351 349 347 347 354 158 73 33 30 31 37 27 4 28 19 358 146 96 353 351 351 336 329 333 343 350 351 332 270 261 136 177 6 7 51 49 17 34 55 200 202 10 31 61 125 142 148 151 111 100 104 105 106 108 91 49 35 88 85 73 92 103 100 88 80 58 53 33 56 79 77 72 71 61 63 60 58 61 57
15 12 7 4 360 358 353 350 353 356 358 358 6 53 181 182 38 27 28 36 33 315 354 10 6 58 339 344 345 321 313 322 334 345 353 5 24 303 264 216 200 56 19 32 46 15 99 63 78 82 8 6 26 109 152 160 142 129 124 115 102 96 91 93 93 85 89 87 85 88 95 99 88 72 59 50 40 72 82 80 77 74 70 68 63 60 59 58
14 11 7 4 360 359 357 354 360 5 8 13 51 100 139 209 223 14 20 28 35 37 359 349 10 82 296 317 308 317 323 328 345 358 3 6 12 26 154 237 223 109 82 53 105 185 147 63 50 64 351 328 334 357 159 157 123 119 120 114 109 98 92 101 111 116 97 87 82 90 97 101 91 74 68 52 41 78 79 76 74 70 69 68 64 62 57 58
12 9 6 4 0 1 2 359 6 12 14 19 73 112 45 5 342 337 360 11 45 70 65 311 357 90 299 298 309 336 343 352 6 7 4 360 351 11 24 335 341 80 70 86 133 216 135 75 64 36 317 287 280 272 144 127 113 109 112 107 102 100 101 111 114 120 102 89 78 94 95 92 90 83 75 59 41 65 68 70 68 64 64 60 60 58 53 54
9 8 6 4 1 3 7 3 9 19 21 32 76 85 69 87 48 324 321 338 319 63 56 355 354 11 325 307 323 345 344 356 5 2 1 359 360 19 0 4 45 39 351 317 171 215 78 66 11 325 305 270 266 196 114 118 113 107 109 107 102 103 105 104 104 114 102 97 97 100 92 83 85 88 86 80 65 61 60 66 64 61 63 55 54 52 48 49
8 8 5 3 3 4 14 12 11 19 27 43 69 79 108 132 57 281 284 348 311 16 41 7 12 6 344 347 349 350 351 5 358 354 357 357 6 33 359 22 57 55 1 349 90 40 48 32 335 318 297 246 179 107 108 111 111 111 111 107 105 109 106 96 93 88 93 99 115 102 90 84 83 84 77 68 66 65 55 58 61 58 59 53 47 45 42 41
5 6 4 3 4 6 35 28 9 15 33 47 65 75 104 83 342 283 78 96 301 342 28 14 15 1 351 358 350 351 27 31 351 341 350 353 0 20 38 35 48 61 37 40 69 59 48 345 317 308 284 129 107 101 107 104 94 104 122 115 118 126 118 106 97 78 74 103 124 103 88 85 80 73 65 57 58 64 57 57 58 54 57 53 46 43 39 39
3 5 4 3 5 11 88 37 12 20 34 47 57 51 55 23 340 194 98 103 339 343 18 19 10 6 349 338 342 353 45 20 1 342 345 354 353 347 50 47 42 59 47 51 64 62 43 330 314 325 106 112 105 98 103 105 76 48 104 121 124 126 114 111 116 103 88 107 121 97 84 71 67 70 63 51 52 58 55 58 57 50 51 49 48 46 38 38
3 5 4 3 7 18 141 37 15 15 16 41 43 22 3 353 324 181 125 63 15 333 357 11 6 4 344 335 346 348 238 6 19 339 342 355 345 320 28 10 47 54 34 47 55 55 25 338 326 65 94 96 98 94 59 96 103 57 9 119 125 122 118 121 127 121 103 119 139 87 91 61 50 80 76 54 56 55 45 52 56 47 43 43 45 41 33 35
2 3 4 3 7 20 134 25 4 3 4 36 11 351 344 10 220 176 111 60 26 341 349 352 351 356 348 341 338 334 51 0 338 348 358 1 346 262 37 348 29 32 7 51 57 72 5 341 347 70 86 83 87 82 11 65 110 81 349 100 119 120 120 126 128 114 104 129 4 47 110 117 79 107 113 111 83 64 54 56 57 51 46 45 43 39 34 31
358 359 2 2 5 19 59 336 352 3 44 344 335 332 347 131 185 189 88 48 21 0 350 337 328 348 350 338 330 354 79 301 322 358 1 359 347 341 46 25 34 20 341 145 57 58 334 353 18 46 67 72 76 62 343 10 101 91 62 95 106 109 109 111 101 92 112 119 53 30 76 113 137 165 154 135 105 80 67 62 56 57 57 50 45 43 42 37
355 355 360 360 3 15 33 17 2 10 355 326 327 345 133 131 169 160 81 63 4 352 353 323 324 340 342 335 343 59 161 287 354 349 339 3 9 3 50 34 41 28 16 72 76 355 303 15 25 25 55 60 39 343 90 96 90 107 119 88 81 95 98 95 92 95 103 95 63 10 32 87 121 158 176 132 101 113 119 113 104 84 80 66 50 36 37 40
353 355 357 0 4 11 21 27 11 359 342 332 12 96 159 143 112 71 68 79 339 340 342 334 337 339 337 341 5 43 20 1 55 313 329 14 21 26 75 18 7 43 31 64 82 32 300 32 16 18 50 44 11 5 109 102 103 140 125 92 81 88 86 80 85 96 71 66 60 321 1 88 142 197 189 200 131 174 189 169 169 158 141 123 94 63 39 31
353 358 357 360 7 7 6 12 2 353 343 346 70 120 164 129 72 57 41 41 344 326 314 358 348 338 343 354 11 10 14 21 0 337 354 17 20 27 67 237 23 70 43 55 75 58 24 14 293 32 34 336 47 44 65 98 115 145 124 106 97 70 62 66 51 68 71 41 318 306 352 101 138 227 193 215 202 170 168 182 201 195 177 174 176 170 122 69
353 359 359 0 6 6 1 351 349 348 344 337 251 242 110 58 58 79 55 320 329 324 335 360 340 345 351 2 13 351 360 14 358 11 18 6 21 26 22 10 9 23 32 28 28 32 33 37 28 24 28 19 56 62 47 56 84 103 98 103 97 48 23 40 6 27 74 331 280 303 345 96 109 228 205 226 200 159 160 176 187 194 192 191 197 202 199 200
355 358 2 5 7 6 1 345 341 346 345 312 239 47 75 47 36 80 280 313 345 330 333 326 322 342 336 338 13 350 344 6 0 20 24 9 33 40 41 29 358 21 31 360 360 19 28 39 27 2 30 30 22 68 57 24 27 54 55 59 79 59 23 27 357 15 79 239 259 302 340 70 270 252 208 191 182 172 175 175 175 184 188 192 201 205 210 211
3 5 10 12 10 5 357 348 345 350 343 286 121 49 79 75 38 316 291 319 332 308 314 301 309 323 329 349 7 346 338 9 1 8 10 25 46 51 57 35 17 43 53 335 13 22 23 26 17 8 10 16 18 64 55 12 23 37 61 84 91 93 70 38 301 8 353 250 259 295 350 39 298 282 206 186 187 185 180 176 178 182 182 187 195 197 205 212
12 18 21 18 12 2 354 351 354 358 356 16 68 51 66 75 8 312 327 283 258 307 322 319 316 327 358 22 351 336 0 13 3 11 5 23 37 21 20 21 18 24 46 40 31 32 60 27 5 8 343 351 19 47 41 141 54 17 132 113 108 130 123 161 197 163 195 248 303 331 13 168 213 273 225 205 199 186 175 179 183 183 183 182 189 195 200 211
20 29 25 19 13 2 354 353 357 3 10 51 71 63 70 92 249 308 308 257 268 318 308 317 334 353 5 357 338 352 18 357 2 23 22 31 42 9 352 354 9 16 19 45 24 17 74 46 305 313 297 1 12 339 357 77 58 20 55 71 67 157 134 134 164 167 168 151 332 331 278 207 215 287 268 232 213 198 182 179 177 186 192 179 186 202 203 213
18 33 26 19 13 4 1 5 16 39 67 77 71 64 86 166 216 155 220 263 350 309 312 341 8 21 357 334 341 352 1 21 11 19 24 32 37 14 1 320 2 26 28 62 49 10 76 21 303 325 331 34 35 317 17 72 138 65 57 48 216 164 118 112 130 51 80 97 291 294 272 285 318 292 245 206 208 209 197 191 185 188 191 186 197 208 208 214
14 27 22 17 9 1 8 19 40 64 79 75 72 84 179 186 189 177 263 317 330 307 347 17 7 23 1 336 337 342 350 11 13 21 21 20 18 3 356 322 355 30 14 42 111 130 93 128 314 4 349 336 15 196 46 50 77 98 97 190 197 105 88 100 99 19 40 75 274 302 273 273 306 264 210 193 209 217 209 206 200 195 193 198 210 212 211 214
4 1 17 11 2 356 2 2 21 59 67 63 71 99 172 81 203 215 280 326 305 352 40 58 1 41 29 345 332 334 350 3 2 24 30 10 5 357 357 333 337 7 351 358 69 358 76 90 309 5 350 306 345 51 26 4 21 80 118 163 116 99 66 57 94 111 77 78 282 312 308 241 215 219 201 197 209 213 209 209 205 204 202 205 215 217 218 221
358 30 15 358 357 356 3 21 57 61 62 65 68 92 154 325 282 251 253 337 20 32 44 36 353 42 37 29 323 321 356 16 355 22 53 16 355 10 22 346 312 342 344 359 56 299 55 96 316 328 343 316 356 38 27 336 344 25 48 16 44 119 137 87 97 144 132 150 232 315 334 264 225 208 193 200 208 203 201 207 209 208 206 206 212 212 215 219
4 68 335 350 1 5 17 47 60 51 54 82 124 115 79 276 285 279 259 329 29 54 50 26 15 38 10 1 350 317 3 23 359 25 55 12 334 337 18 14 313 327 338 2 50 337 341 85 113 312 341 19 24 26 85 293 323 353 23 12 3 21 63 88 61 71 114 137 174 137 319 266 245 198 187 203 210 200 196 203 209 212 209 209 211 207 209 214
25 68 313 346 1 4 29 46 50 43 73 88 120 105 74 229 286 320 304 335 23 349 77 105 79 54 21 357 359 323 359 18 15 46 41 2 33 355 355 18 332 317 338 10 22 23 9 70 109 338 2 43 317 260 217 210 225 197 69 64 91 23 95 98 46 344 86 120 163 152 236 270 259 190 192 207 207 203 202 202 207 214 213 215 217 211 210 212
49 89 313 343 358 42 64 55 36 50 90 76 55 139 258 207 71 338 331 4 23 358 37 82 94 60 82 357 335 334 27 25 9 33 40 349 42 198 301 348 332 304 23 30 326 335 63 86 82 31 1 227 263 279 3 246 227 161 64 127 131 92 99 115 165 235 78 70 142 125 196 272 263 212 213 224 216 209 204 200 206 217 217 219 223 221 218 220
72 175 328 350 351 70 70 61 351 31 69 270 306 240 301 47 77 342 358 10 13 23 26 38 60 36 56 6 345 21 24 42 33 22 357 312 283 223 277 338 343 340 49 38 305 333 58 72 67 355 311 303 304 322 15 13 42 57 356 31 82 51 95 137 175 171 119 154 166 89 313 269 277 292 257 241 229 215 207 205 208 216 224 225 228 230 227 227
101 208 330 4 6 127 91 93 118 75 101 328 27 348 324 26 61 10 10 338 353 72 54 23 333 358 29 22 68 31 344 58 62 359 357 333 295 258 325 355 8 19 28 344 312 337 33 62 82 54 357 346 346 348 346 348 17 65 313 340 38 60 79 127 159 78 80 203 148 120 241 256 281 328 339 332 230 210 219 219 213 216 226 229 230 234 233 231
60 220 293 9 30 61 103 153 141 129 151 105 71 34 1 29 347 356 80 332 349 129 111 19 326 328 358 17 26 359 351 72 74 345 13 351 298 317 357 354 15 19 349 328 346 12 100 96 106 107 101 85 340 313 278 292 322 336 322 332 19 57 65 185 134 64 2 223 143 156 223 267 301 325 329 316 282 240 241 243 241 236 233 234 234 235 235 232
75 58 298 354 25 51 71 131 101 110 151 134 97 66 81 66 310 287 97 22 336 96 74 8 318 358 27 40 33 353 349 25 56 41 26 325 294 292 340 351 22 2 344 2 31 60 106 87 102 135 155 177 187 218 222 192 167 240 285 302 302 38 64 98 96 119 201 183 214 221 216 289 298 283 268 268 254 241 247 248 250 251 247 244 241 237 237 235
90 102 90 346 4 39 35 19 61 97 151 140 119 131 123 122 283 325 29 352 321 58 53 27 30 48 54 57 59 7 342 356 19 36 1 308 286 279 325 10 25 352 346 2 23 58 93 51 47 140 206 217 201 223 229 121 191 211 222 258 238 202 104 105 145 218 169 123 272 258 200 259 271 247 231 244 239 236 242 239 238 243 245 246 246 245 246 245
67 142 151 90 74 80 57 44 90 94 94 103 113 126 119 120 140 138 349 358 14 30 67 27 8 11 26 106 101 74 350 2 8 358 326 320 316 318 336 7 15 352 359 7 354 71 104 44 356 108 277 267 246 251 234 198 241 225 210 220 214 189 164 170 205 209 163 174 241 238 155 240 259 252 240 240 234 232 236 236 241 250 254 254 255 254 250 246
76 109 13 14 98 150 134 95 102 92 84 88 91 114 137 139 151 193 215 49 9 337 78 87 308 309 313 329 113 110 352 46 15 305 284 323 324 337 347 334 327 359 16 18 351 77 119 285 255 119 309 295 280 254 203 193 258 271 237 224 216 210 203 207 224 208 190 225 249 251 268 272 267 257 253 250 239 234 239 250 261 262 259 256 253 251 248 244
133 142 160 64 70 100 62 60 87 85 63 54 73 124 146 140 156 191 132 98 110 306 31 123 211 242 287 7 95 118 230 177 179 247 203 327 315 339 23 289 299 348 7 21 337 331 72 321 185 109 338 304 301 8 133 166 205 254 262 241 220 222 225 227 234 209 204 247 261 260 273 278 265 235 246 258 247 231 242 254 256 253 251 250 247 246 246 244
106 126 142 114 75 357 6 41 82 95 62 20 120 166 176 175 177 157 111 133 160 197 198 154 167 193 340 46 87 207 235 186 179 212 182 169 285 319 49 262 288 339 350 7 340 343 49 76 13 57 29 294 297 15 3 320 246 259 271 256 223 209 215 223 220 199 195 211 217 193 245 260 251 214 241 259 220 206 232 243 249 253 250 245 243 245 243 241
104 93 111 106 80 342 10 42 41 83 132 210 146 161 196 201 184 137 95 3 68 111 179 157 146 133 41 19 299 232 217 192 189 208 182 150 104 61 43 308 12 2 337 352 355 352 61 87 23 46 43 276 290 340 333 341 357 285 265 238 200 192 207 233 239 218 204 179 153 188 223 241 245 211 234 248 221 213 228 232 234 244 246 237 236 241 243 242